Regional Weather Roundup
Issued by NWS Sioux Falls, SD

Home | Current Version | Previous Version | Text Only | Print | Product List | Glossary On
Versions: 1 2 3 4 5 6 7 8 9 10 11 12 13 14 15 16 17 18 19 20 21 22 23 24 25 26 27 28 29 30 31 32 33 34 35 36 37 38 39 40 41 42 43 44 45 46 47 48 49 50
000
ASUS43 KFSD 031110
RWRFSD

WEATHER ROUNDUP FOR SE SOUTH DAKOTA/SW MINNESOTA/NW IOWA
NATIONAL WEATHER SERVICE SIOUX FALLS SD
500 AM CST TUE MAR 03 2015

NOTE: "FAIR" INDICATES FEW OR NO CLOUDS BELOW 12,000 FEET WITH NO
SIGNIFICANT WEATHER AND OR OBSTRUCTIONS TO VISIBILITY.


SDZ038>040-050-052>070-031200-
SOUTHEAST SOUTH DAKOTA

CITY           SKY/WX    TMP DP  RH WIND       PRES   REMARKS
CHAMBERLAIN    LGT SNOW  27  26  97 N6        29.66R VSB 3/4 WCI  21
HURON          SNOW      25  24  96 SW3       29.68R VSB 1/2
MADISON        CLOUDY    23  23 100 S6        29.64F WCI  16
MITCHELL       LGT SNOW  27  21  78 S3        29.68R
SIOUX FALLS    CLOUDY    25  19  78 S7        29.66F WCI  17
WINNER         LGT SNOW  30  26  85 NW18      29.67R VSB 1   WCI  18
YANKTON        CLOUDY    28  18  64 S3        29.68R
$$

MNZ071-072-080-081-089-090-097-098-031200-
SOUTHWEST MINNESOTA

CITY           SKY/WX    TMP DP  RH WIND       PRES   REMARKS
FAIRMONT       CLOUDY    25  18  74 SE12      29.70F WCI  14
JACKSON        CLOUDY    25  21  86 SE9       29.69F WCI  15
LUVERNE        CLOUDY    27  21  80 SE5       29.67F WCI  21
MARSHALL       CLOUDY    25  18  74 SE8       29.70F WCI  16
MONTEVIDEO     CLOUDY    23  21  93 S8        29.72F WCI  14
PIPESTONE      CLOUDY    23  19  86 S6        29.65F WCI  16
REDWOOD FALLS  CLOUDY    23  18  81 SE10      29.72F WCI  12
TRACY          CLOUDY    25  21  85 S6        29.69F WCI  18
WINDOM         CLOUDY    23  19  86 SE8       29.69F WCI  14
WORTHINGTON    CLOUDY    21  18  86 SE7       29.69F WCI  13
$$

IAZ001>003-012>014-020>022-031-032-NEZ013-014-SDZ071-031200-
NORTHWEST IOWA

CITY           SKY/WX    TMP DP  RH WIND       PRES   REMARKS
CHEROKEE       CLOUDY    26  23  87 SE6       29.69F WCI  20
DENISON        CLOUDY    30  27  86 S9        29.65F WCI  22
ESTHERVILLE    CLOUDY    23  20  88 SE12      29.70F WCI  12
LE MARS        CLOUDY    28  23  80 SE9       29.68F WCI  20
ORANGE CITY    CLOUDY    28  23  80 CALM      29.66F
SHELDON        CLOUDY    25  23  93 SE10      29.66F WCI  15
SIOUX CITY     CLOUDY    30  22  72 SE8       29.68F WCI  22
SPENCER        CLOUDY    26  20  77 SE7       29.69F WCI  18
STORM LAKE     CLOUDY    25  23  93 SE8       29.69F WCI  16
$$

ABBREVIATIONS USED IN REMARKS
   TC - TEMPERATURE IN CELSIUS
  WCI - WIND CHILL INDEX
   HX - HEAT INDEX
  VSB - VISIBILITY




USA.gov is the U.S. government's official web portal to all federal, state and local government web resources and services.